テンペル第2彗星

10P/Tempel 2 (2021)

English version
Home page
Updated on July 24, 2022

---------------------------------------------------------------------

・ プロフィール

・ 写真集

・ 軌道要素

Epoch 2022 Jan. 21.0 TT = JDT 2459600.5
T 2021 Mar. 24.24188 TT                                 Rudenko
q   1.4126243            (2000.0)            P               Q
n   0.18406224     Peri.  195.49937     +0.68073365     +0.70891821
a   3.0607387      Node   117.80961     -0.64796411     +0.70020985
e   0.5384695      Incl.   12.03920     -0.34167852     +0.08450524
P   5.35
From 4436 observations 1961 Mar. 19-2022 Feb. 6, mean residual 0".9.
     Nongravitational parameters A1 = +0.02, A2 = +0.0005.

・ 星図

・ 光度変化

        H = 13.6  G = 0.15              [    ,-155]  (              〜2020年10月20日)
        m1 =  4.6 + 5 logΔ + 35 log r  [-155,   0]  (2020年10月20日〜2021年 3月24日)
        m1 =  7.2 + 5 logΔ + 18 log r  [   0, 405]  (2021年 3月24日〜2022年 5月 3日)
        H = 13.6  G = 0.15              [ 405,    ]  (2022年 5月 3日〜              )

---------------------------------------------------------------------

軌道要素はM.P.E.C. 2022-C234に掲載されたものです。
星図はステラナビゲータ Ver.10 (アストロアーツ) で作成したものです。
光度グラフはComet for Windowsで作成したものです。

---------------------------------------------------------------------

Copyright(C) Seiichi Yoshida (comet@aerith.net). All rights reserved.